Zurück zum Katalog

CZ-3B DEB

LostGTO
NORAD 41120·DEBRIS·🇨🇳 China

Gestartet Dec 19, 2011 von Xichang Satellite Launch Center

Loading…

TLE

VeraltetSource: Space-Track

Epoche: Jul 29, 2019, 18:23 UTC

1 41120U 11077AK  19210.76630294 -.00000492  00000-0 -56385-1 0  9999
2 41120  26.8759 353.7873 7318689 272.0230  13.9514  1.88905713 29748

Verfolge CZ-3B DEB in Echtzeit mit AllMySat

Download on the App Store